Weather History for Valparaiso, IN

Change the Weather History Date:

Sunday, February 9, 2014

  Actual Average Record
Temperature  
Mean Temperature 9 °F 26 °F  
Max Temperature 18 °F 34 °F 56 °F (2001)
Min Temperature -1 °F 18 °F -7 °F (2011)
Degree Days  
Heating Degree Days 56 39  
Month to date heating degree days 487 360  
Since 1 July heating degree days 4559 4045  
Cooling Degree Days 0 0  
Month to date cooling degree days 0 0  
Year to date cooling degree days 0 0  
Moisture  
Dew Point 10 °F    
Average Humidity 85    
Maximum Humidity 96    
Minimum Humidity 62    
Precipitation  
Precipitation T in 0.05 in 0.85 in (2001)
Month to date precipitation 0.36 0.42  
Year to date precipitation 1.31 2.17  
Sea Level Pressure  
Sea Level Pressure 30.15 in    
Wind  
Wind Speed 8 mph (WNW)    
Max Wind Speed 15 mph    
Max Gust Speed 19 mph    
Visibility 5 miles    
Events Snow    
T = Trace of Precipitation, MM = Missing Value Source: NWS Daily Summary

Daily Weather History Graph

Daily Weather History Graph

Search for Another Location

Airport:

Trip Planner

Search our weather history database for the weather conditions in past years. The results will help you decide how hot, cold, wet, or windy it might be!

Date:

Astronomy

Feb. 09, 2014 Rise Set
Actual Time 6:50 AM CST 5:14 PM CST
Civil Twilight 6:21 AM CST 5:43 PM CST
Nautical Twilight 5:49 AM CST 6:15 PM CST
Astronomical Twilight 5:17 AM CST 6:48 PM CST
Moon 12:52 PM CST (2/9) 2:56 AM CST (2/9)
Length of Visible Light 11h 21m
Length of Day
10h 23m
Waxing Gibbous, 77% of the Moon is Illuminated
Feb 9
Waxing Gibbous
Feb 14
Full
Feb 22
Last Quarter
Mar 1
New
Mar 8
First Quarter

Hourly Weather History & Observations

Time (CST) Temp. Windchill Dew Point Humidity Pressure Visibility Wind Dir Wind Speed Gust Speed Precip Events Conditions
12:41 AM 15.1 °F 6.4 °F 12.9 °F 91% 30.10 in 2.0 mi WSW 5.8 mph - 0.00 in Snow Light Snow
12:53 AM 15.1 °F 7.7 °F 14.0 °F 95% 30.15 in 2.5 mi West 4.6 mph - 0.00 in Snow Light Snow
1:05 AM 15.1 °F 6.4 °F 14.0 °F 95% 30.11 in 3.0 mi West 5.8 mph - 0.00 in Snow Light Snow
1:11 AM 15.1 °F 5.2 °F 14.0 °F 95% 30.11 in 4.0 mi West 6.9 mph - 0.00 in Snow Light Snow
1:34 AM 15.1 °F 6.4 °F 14.0 °F 95% 30.11 in 1.8 mi West 5.8 mph - 0.00 in Snow Light Snow
1:41 AM 15.1 °F 6.4 °F 14.0 °F 95% 30.10 in 1.2 mi West 5.8 mph - 0.00 in Snow Light Snow
1:53 AM 16.0 °F 7.4 °F 14.0 °F 92% 30.15 in 1.2 mi West 5.8 mph - 0.00 in Snow Light Snow
2:17 AM 16.0 °F 6.3 °F 14.0 °F 92% 30.09 in 2.0 mi West 6.9 mph - 0.00 in Snow Light Snow
2:24 AM 16.0 °F 6.3 °F 14.0 °F 92% 30.09 in 1.8 mi West 6.9 mph - 0.00 in Snow Light Snow
2:51 AM 15.8 °F 6.1 °F 14.0 °F 93% 30.10 in 2.0 mi West 6.9 mph - 0.00 in Snow Light Snow
2:53 AM 16.0 °F 7.4 °F 14.0 °F 92% 30.14 in 2.0 mi West 5.8 mph - 0.00 in Snow Light Snow
3:01 AM 16.0 °F 7.4 °F 14.0 °F 92% 30.09 in 1.5 mi West 5.8 mph - 0.00 in Snow Light Snow
3:31 AM 15.1 °F 5.2 °F 14.0 °F 95% 30.09 in 2.5 mi West 6.9 mph - 0.00 in Snow Light Snow
3:41 AM 15.1 °F 4.2 °F 14.0 °F 95% 30.10 in 3.0 mi West 8.1 mph - 0.00 in Snow Light Snow
3:48 AM 15.8 °F 6.1 °F 14.0 °F 93% 30.09 in 4.0 mi West 6.9 mph - 0.00 in Snow Light Snow
3:53 AM 15.1 °F 6.4 °F 14.0 °F 95% 30.13 in 5.0 mi West 5.8 mph - 0.00 in Snow Light Snow
4:44 AM 15.1 °F 5.2 °F 12.9 °F 91% 30.10 in 8.0 mi WNW 6.9 mph - 0.00 in   Overcast
4:53 AM 15.1 °F 6.4 °F 12.9 °F 91% 30.14 in 8.0 mi West 5.8 mph - 0.00 in   Overcast
5:53 AM 15.1 °F 5.2 °F 12.9 °F 91% 30.14 in 6.0 mi West 6.9 mph - N/A   Overcast
6:53 AM 15.1 °F 2.5 °F 12.9 °F 91% 30.14 in 6.0 mi West 10.4 mph - N/A   Overcast
7:27 AM 14.0 °F 3.9 °F 12.0 °F 92% 30.10 in 1.8 mi NW 6.9 mph - 0.00 in Snow Light Snow
7:46 AM 14.0 °F 5.1 °F 12.0 °F 92% 30.10 in 1.2 mi NW 5.8 mph - 0.00 in Snow Light Snow
7:53 AM 14.0 °F 6.5 °F 12.0 °F 92% 30.15 in 1.2 mi NNW 4.6 mph - 0.00 in Snow Light Snow
8:26 AM 14.0 °F 6.5 °F 10.9 °F 88% 30.11 in 2.5 mi NW 4.6 mph - 0.00 in Snow Light Snow
8:39 AM 14.0 °F 2.0 °F 10.9 °F 88% 30.11 in 2.5 mi WNW 9.2 mph - 0.00 in Snow Light Snow
8:53 AM 14.0 °F 1.2 °F 10.0 °F 84% 30.16 in 1.5 mi WNW 10.4 mph - 0.00 in Snow Light Snow
9:53 AM 14.0 °F 2.9 °F 10.0 °F 84% 30.17 in 2.0 mi NW 8.1 mph - 0.00 in Snow Light Snow
10:39 AM 15.1 °F 1.8 °F 10.0 °F 80% 30.13 in 2.5 mi WNW 11.5 mph - 0.00 in Snow Light Snow
10:48 AM 14.0 °F 1.2 °F 8.6 °F 79% 30.14 in 4.0 mi NW 10.4 mph - 0.00 in Snow Light Snow
10:53 AM 14.0 °F 2.9 °F 9.0 °F 80% 30.18 in 4.0 mi NW 8.1 mph - 0.00 in Snow Light Snow
11:53 AM 16.0 °F 3.6 °F 9.0 °F 74% 30.18 in 9.0 mi WNW 10.4 mph - 0.00 in   Overcast
12:53 PM 18.0 °F 6.1 °F 7.0 °F 62% 30.15 in 10.0 mi NNW 10.4 mph - 0.00 in   Mostly Cloudy
1:03 PM 18.0 °F 6.9 °F 7.0 °F 62% 30.10 in 10.0 mi NW 9.2 mph - 0.00 in   Scattered Clouds
1:53 PM 18.0 °F 6.1 °F 7.0 °F 62% 30.14 in 10.0 mi NW 10.4 mph - 0.00 in   Clear
2:53 PM 18.0 °F 6.9 °F 7.0 °F 62% 30.18 in 10.0 mi NW 9.2 mph - N/A   Scattered Clouds
3:01 PM 17.1 °F 6.6 °F 8.1 °F 68% 30.14 in 10.0 mi WNW 8.1 mph - N/A   Mostly Cloudy
3:53 PM 17.1 °F 7.6 °F 9.0 °F 71% 30.20 in 10.0 mi WNW 6.9 mph - 0.00 in   Overcast
4:53 PM 14.0 °F 1.2 °F 7.0 °F 74% 30.21 in 9.0 mi West 10.4 mph - N/A   Overcast
5:26 PM 12.0 °F 2.7 °F 6.1 °F 77% 30.18 in 10.0 mi WSW 5.8 mph - N/A   Partly Cloudy
5:53 PM 12.0 °F -2.0 °F 6.1 °F 77% 30.25 in 10.0 mi WSW 11.5 mph - N/A   Clear
6:53 PM 8.1 °F -6.2 °F 1.9 °F 76% 30.26 in 10.0 mi West 10.4 mph - N/A   Clear
7:53 PM 6.1 °F -6.8 °F 1.0 °F 80% 30.27 in 9.0 mi West 8.1 mph - N/A   Clear
8:53 PM 3.9 °F -10.4 °F -0.0 °F 84% 30.29 in 8.0 mi West 9.2 mph - N/A   Clear
9:53 PM 3.0 °F -9.3 °F -0.0 °F 87% 30.29 in 7.0 mi West 6.9 mph - N/A   Clear
10:53 PM 1.9 °F -9.2 °F -0.9 °F 88% 30.30 in 5.0 mi West 5.8 mph - N/A   Clear
11:53 PM -0.0 °F -14.2 °F -0.9 °F 96% 30.31 in 4.0 mi West 8.1 mph - N/A   Clear